This demonstration page uses our WeatherBlox Daily Observations layout. Learn more.

39.01783, -85.05884

Hourly Observations for November 21, 2019

Temp ( °F °C ) Dew Point ( °F °C ) Humidity (%) Winds ( mph kmh ) Pressure ( in mb ) Visibility ( mi km ) Precip ( " mm )
12:52 am 00:52 Cloudy 39 3.9 36 2.2 89 89 S 7 11 30.21 1023 7 11.26538 0 0
1:52 am 01:52 Cloudy 42 5.6 37 2.8 82 82 SSE 9 15 30.18 1022 7 11.26538 0 0
2:52 am 02:52 Cloudy 41 5 37 2.8 86 86 S 9 15 30.18 1022 7 11.26538 0 0
3:52 am 03:52 Cloudy 41 5 37 2.8 86 86 SSE 8 13 30.17 1022 7 11.26538 0 0
4:52 am 04:52 Cloudy 42 5.6 37 2.8 82 82 SSE 9 15 30.15 1021 8 12.87472 0 0
5:52 am 05:52 Cloudy 42 5.6 37 2.8 82 82 S 10 17 30.13 1020 9 14.48406 0 0
6:52 am 06:52 Cloudy 41 5 37 2.8 86 86 S 8 13 30.14 1021 9 14.48406 0 0
7:52 am 07:52 Cloudy 43 6.1 38 3.3 82 82 SSE 10 17 30.09 1019 8 12.87472 0 0
8:52 am 08:52 Cloudy 46 7.8 38 3.3 73 73 S 9 15 30.09 1019 10 16.0934 0 0
10:52 am 10:52 Cloudy 51 10.6 38 3.3 61 61 SSW 12 19 30.06 1018 10 16.0934 0 0
11:52 am 11:52 Cloudy 53 11.7 38 3.3 57 57 S 16 26 30.01 1016 10 16.0934 0 0
12:52 pm 12:52 Cloudy 56 13.3 39 3.9 53 53 SSW 14 22 29.99 1016 10 16.0934 0.001 0.001
1:52 pm 13:52 Cloudy 57 13.9 39 3.9 51 51 SSW 13 20 29.96 1015 10 16.0934 0 0
2:27 pm 14:27 Cloudy with Light Rain 54 12.2 43 6.1 67 67 SW 16 26 29.97 1015 4 6.43736 0.001 0.001
2:52 pm 14:52 Cloudy with Light Rain 53 11.7 44 6.7 72 72 SSW 16 26 29.96 1015 5 8.0467 0.02 0.508
3:52 pm 15:52 Cloudy 53 11.7 43 6.1 69 69 SSW 12 19 29.95 1014 10 16.0934 0.001 0.001
4:52 pm 16:52 Cloudy 54 12.2 44 6.7 69 69 SW 20 31 29.96 1014 10 16.0934 0 0
5:52 pm 17:52 Cloudy 54 12.2 44 6.7 69 69 SW 14 22 29.96 1015 10 16.0934 0 0
6:52 pm 18:52 Cloudy 54 12.2 44 6.7 69 69 SW 14 22 29.97 1015 10 16.0934 0 0
7:52 pm 19:52 Cloudy 54 12.2 46 7.8 75 75 SW 14 22 29.97 1015 10 16.0934 0 0
8:52 pm 20:52 Cloudy 54 12.2 47 8.3 77 77 SW 13 20 29.97 1015 10 16.0934 0 0
9:52 pm 21:52 Cloudy 54 12.2 46 7.8 75 75 SW 10 17 29.97 1015 10 16.0934 0 0
10:52 pm 22:52 Cloudy 54 12.2 47 8.3 77 77 SW 12 19 29.96 1015 10 16.0934 0 0
11:52 pm 23:52 Cloudy 54 12.2 47 8.3 77 77 SW 9 15 29.94 1014 10 16.0934 0 0

Powered by AerisWeather